• In Hungary
  • List of Countries
  • For 7 days
  • Water Temperature
  • Satellite Maps
  • Weather Map
  • News
  • Weather Widgets
  • user-avatar
    Login

    Hourly Weather Corfu

    Today, 23 September, Sunday

    Time Temperature Precipitation Wind Pressure Humidity
    00:00 +24°C° 0 mm 1 mps 764 mmHg 78%
    01:00 +24°C° 0 mm 1 mps 764 mmHg 78%
    02:00 +23°C° 0 mm 1 mps 764 mmHg 77%
    03:00 +23°C° 0 mm 1 mps 764 mmHg 76%
    04:00 +23°C° 0 mm 1 mps 764 mmHg 75%
    05:00 +24°C° 0 mm 1 mps 764 mmHg 71%
    06:00 +25°C° 0 mm 1 mps 764 mmHg 66%
    07:00 +26°C° 0 mm 1 mps 764 mmHg 61%
    08:00 +28°C° 0 mm 1 mps 764 mmHg 55%
    09:00 +30°C° 0 mm 1 mps 764 mmHg 48%
    10:00 +32°C° 0 mm 1 mps 764 mmHg 42%
    11:00 +34°C° 0 mm 2 mps 764 mmHg 41%
    12:00 +34°C° 0 mm 2 mps 764 mmHg 40%
    13:00 +35°C° 0 mm 3 mps 764 mmHg 39%
    14:00 +34°C° 0 mm 3 mps 764 mmHg 42%
    15:00 +33°C° 0 mm 3 mps 763 mmHg 45%
    16:00 +33°C° 0 mm 3 mps 763 mmHg 48%
    17:00 +30°C° 0 mm 2 mps 763 mmHg 56%
    18:00 +28°C° 0 mm 2 mps 763 mmHg 63%
    19:00 +26°C° 0 mm 2 mps 764 mmHg 71%
    20:00 +26°C° 0 mm 1 mps 764 mmHg 73%
    21:00 +25°C° 0 mm 1 mps 764 mmHg 74%
    22:00 +25°C° 0 mm 1 mps 764 mmHg 76%
    23:00 +24°C° 0 mm 1 mps 764 mmHg 77%

    Tomorrow, 24 September, Monday

    Time Temperature Precipitation Wind Pressure Humidity
    00:00 +24°C° 0 mm 1 mps 763 mmHg 79%
    01:00 +24°C° 0 mm 1 mps 763 mmHg 80%
    02:00 +23°C° 0 mm 1 mps 763 mmHg 82%
    03:00 +23°C° 0 mm 1 mps 762 mmHg 83%
    04:00 +23°C° 0 mm 1 mps 762 mmHg 85%
    05:00 +23°C° 0 mm 2 mps 762 mmHg 80%
    06:00 +24°C° 0 mm 2 mps 762 mmHg 76%
    07:00 +25°C° 0 mm 2 mps 762 mmHg 71%
    08:00 +27°C° 0 mm 2 mps 762 mmHg 63%
    09:00 +29°C° 0 mm 2 mps 762 mmHg 55%
    10:00 +30°C° 0 mm 3 mps 762 mmHg 47%
    11:00 +31°C° 0 mm 3 mps 761 mmHg 47%
    12:00 +31°C° 0 mm 3 mps 761 mmHg 46%
    13:00 +33°C° 0 mm 3 mps 760 mmHg 45%
    14:00 +31°C° 0 mm 3 mps 760 mmHg 49%
    15:00 +31°C° 0 mm 3 mps 760 mmHg 53%
    16:00 +30°C° 0 mm 2 mps 759 mmHg 57%
    17:00 +28°C° 0 mm 2 mps 760 mmHg 67%
    18:00 +27°C° 0 mm 1 mps 760 mmHg 76%
    19:00 +25°C° 0 mm 1 mps 760 mmHg 85%
    20:00 +25°C° 0 mm 1 mps 761 mmHg 86%
    21:00 +25°C° 0 mm 1 mps 761 mmHg 87%
    22:00 +24°C° 0 mm 1 mps 761 mmHg 87%
    23:00 +24°C° 0 mm 1 mps 762 mmHg 85%

    Day after tomorrow, 25 September, Tuesday

    Time Temperature Precipitation Wind Pressure Humidity
    00:00 +24°C° 0 mm 1 mps 762 mmHg 83%
    01:00 +24°C° 0 mm 2 mps 762 mmHg 81%
    02:00 +23°C° 0 mm 2 mps 762 mmHg 76%
    03:00 +22°C° 0 mm 3 mps 762 mmHg 72%
    04:00 +21°C° 0 mm 3 mps 762 mmHg 68%
    05:00 +22°C° 0 mm 4 mps 762 mmHg 61%
    06:00 +22°C° 0 mm 4 mps 763 mmHg 55%
    07:00 +22°C° 0 mm 4 mps 763 mmHg 48%
    08:00 +25°C° 0 mm 4 mps 763 mmHg 43%
    09:00 +27°C° 0 mm 4 mps 764 mmHg 38%
    10:00 +29°C° 0 mm 3 mps 764 mmHg 32%
    11:00 +30°C° 0 mm 4 mps 764 mmHg 32%
    12:00 +32°C° 0 mm 4 mps 764 mmHg 31%
    13:00 +33°C° 0 mm 4 mps 764 mmHg 31%
    14:00 +33°C° 0 mm 5 mps 763 mmHg 31%
    15:00 +32°C° 0 mm 6 mps 763 mmHg 32%
    16:00 +30°C° 0 mm 7 mps 763 mmHg 33%
    17:00 +28°C° 0 mm 6 mps 764 mmHg 35%
    18:00 +27°C° 0 mm 6 mps 764 mmHg 38%
    19:00 +24°C° 0 mm 6 mps 765 mmHg 40%
    20:00 +22°C° 0 mm 5 mps 765 mmHg 38%
    21:00 +21°C° 0 mm 5 mps 766 mmHg 36%
    22:00 +20°C° 0 mm 5 mps 766 mmHg 33%
    23:00 +19°C° 0 mm 5 mps 767 mmHg 32%

    26 September, Wednesday

    Time Temperature Precipitation Wind Pressure Humidity
    00:00 +17°C° 0 mm 5 mps 767 mmHg 31%
    01:00 +17°C° 0 mm 5 mps 767 mmHg 29%
    02:00 +16°C° 0 mm 5 mps 767 mmHg 30%
    03:00 +15°C° 0 mm 5 mps 767 mmHg 30%
    04:00 +15°C° 0 mm 5 mps 768 mmHg 30%
    05:00 +15°C° 0 mm 5 mps 768 mmHg 31%
    06:00 +15°C° 0 mm 5 mps 769 mmHg 32%
    07:00 +15°C° 0 mm 5 mps 769 mmHg 33%
    08:00 +17°C° 0 mm 5 mps 769 mmHg 29%
    09:00 +20°C° 0 mm 4 mps 769 mmHg 26%
    10:00 +22°C° 0 mm 4 mps 769 mmHg 23%
    11:00 +23°C° 0 mm 4 mps 769 mmHg 21%
    12:00 +25°C° 0 mm 3 mps 769 mmHg 19%
    13:00 +26°C° 0 mm 2 mps 769 mmHg 17%
    14:00 +25°C° 0 mm 3 mps 769 mmHg 18%
    15:00 +25°C° 0 mm 3 mps 769 mmHg 18%
    16:00 +25°C° 0 mm 3 mps 769 mmHg 18%
    17:00 +22°C° 0 mm 4 mps 769 mmHg 20%
    18:00 +20°C° 0 mm 4 mps 770 mmHg 22%
    19:00 +18°C° 0 mm 4 mps 770 mmHg 24%
    20:00 +17°C° 0 mm 4 mps 770 mmHg 26%
    21:00 +15°C° 0 mm 5 mps 771 mmHg 28%
    22:00 +14°C° 0 mm 5 mps 771 mmHg 30%
    23:00 +14°C° 0 mm 5 mps 771 mmHg 32%

    27 September, Thursday

    Time Temperature Precipitation Wind Pressure Humidity
    00:00 +13°C° 0 mm 5 mps 771 mmHg 34%
    01:00 +13°C° 0 mm 5 mps 770 mmHg 36%
    02:00 +12°C° 0 mm 4 mps 770 mmHg 38%
    03:00 +12°C° 0 mm 4 mps 770 mmHg 39%
    04:00 +11°C° 0 mm 4 mps 770 mmHg 40%
    05:00 +12°C° 0 mm 4 mps 770 mmHg 39%
    06:00 +13°C° 0 mm 4 mps 769 mmHg 37%
    07:00 +13°C° 0 mm 4 mps 769 mmHg 35%
    08:00 +17°C° 0 mm 3 mps 769 mmHg 28%
    09:00 +20°C° 0 mm 3 mps 768 mmHg 21%
    10:00 +22°C° 0 mm 3 mps 768 mmHg 15%
    11:00 +24°C° 0 mm 3 mps 767 mmHg 14%
    12:00 +26°C° 0 mm 4 mps 766 mmHg 13%
    13:00 +27°C° 0 mm 5 mps 765 mmHg 13%
    14:00 +27°C° 0 mm 6 mps 765 mmHg 14%
    15:00 +26°C° 0 mm 6 mps 764 mmHg 15%
    16:00 +26°C° 0 mm 7 mps 764 mmHg 16%
    17:00 +23°C° 0 mm 6 mps 764 mmHg 19%
    18:00 +21°C° 0 mm 6 mps 763 mmHg 22%
    19:00 +19°C° 0 mm 6 mps 763 mmHg 25%
    20:00 +17°C° 0 mm 5 mps 763 mmHg 25%
    21:00 +17°C° 0 mm 5 mps 763 mmHg 25%
    22:00 +18°C° 0 mm 4 mps 763 mmHg 25%
    23:00 +17°C° 0 mm 4 mps 762 mmHg 25%

    28 September, Friday

    Time Temperature Precipitation Wind Pressure Humidity
    00:00 +17°C° 0 mm 4 mps 762 mmHg 24%
    01:00 +17°C° 0 mm 3 mps 762 mmHg 24%
    02:00 +17°C° 0 mm 3 mps 762 mmHg 25%
    03:00 +17°C° 0 mm 3 mps 761 mmHg 26%
    04:00 +16°C° 0 mm 3 mps 761 mmHg 26%
    05:00 +17°C° 0 mm 3 mps 761 mmHg 27%
    06:00 +18°C° 0 mm 3 mps 761 mmHg 28%
    07:00 +18°C° 0 mm 2 mps 761 mmHg 28%
    08:00 +21°C° 0 mm 2 mps 761 mmHg 24%
    09:00 +24°C° 0 mm 2 mps 761 mmHg 20%
    10:00 +27°C° 0 mm 1 mps 761 mmHg 16%
    11:00 +28°C° 0 mm 2 mps 760 mmHg 17%
    12:00 +29°C° 0 mm 2 mps 760 mmHg 18%
    13:00 +30°C° 0 mm 3 mps 760 mmHg 19%
    14:00 +29°C° 0 mm 3 mps 759 mmHg 22%
    15:00 +29°C° 0 mm 4 mps 759 mmHg 24%
    16:00 +28°C° 0 mm 4 mps 759 mmHg 26%
    17:00 +26°C° 0 mm 4 mps 759 mmHg 30%
    18:00 +23°C° 0 mm 4 mps 760 mmHg 35%
    19:00 +21°C° 0 mm 3 mps 760 mmHg 39%
    20:00 +21°C° 0 mm 3 mps 760 mmHg 39%
    21:00 +20°C° 0 mm 3 mps 760 mmHg 38%
    22:00 +20°C° 0 mm 3 mps 760 mmHg 38%
    23:00 +19°C° 0 mm 2 mps 760 mmHg 38%
    Show more